Regional Weather Roundup
Issued by NWS

Home | Current Version | Previous Version | Graphics & Text | Print | Product List | Glossary On
Versions: 1 2 3 4 5 6 7 8 9 10 11 12 13 14 15 16 17 18 19 20 21 22 23 24 25 26 27 28 29 30 31 32 33 34 35 36 37 38 39 40 41 42 43 44 45 46 47 48 49 50
000
ASUS45 KABQ 300610
RWRNM
NEW MEXICO REGIONAL WEATHER ROUNDUP
NATIONAL WEATHER SERVICE ALBUQUERQUE NM
1200 AM MDT TUE MAY 30 2017

NOTE: "FAIR" MEANS FEW OR NO CLOUDS BELOW 12,000 FEET AGL WITH NO
       SIGNIFICANT WEATHER OR OBSTRUCTIONS TO VISION.

      THIS PRODUCT IS RELEASED AS TWO VERSIONS.  ONE VERSION NEAR
      THE TOP OF THE HOUR CONTAINING PRELIMINARY DATA FROM ALBUQUERQUE
      AND OTHER STATIONS.  A FINAL VERSION WITH ADDITIONAL DATA IS
      ISSUED ABOUT 10 MINUTES AFTER THE HOUR.

NMZ501-503-504-510>518-300700-
NORTHWEST PLATEAU/NORTHCENTRAL MOUNTAINS

CITY           SKY/WX    TMP DP  RH WIND       PRES   REMARKS
FARMINGTON     FAIR      55  26  32 NE8       30.11R
6HR MIN TEMP:  54; 6HR MAX TEMP:  81;

LOS ALAMOS     FAIR      50  41  70 S12       30.31S
SANTA FE       FAIR      53  43  68 SE10      30.26S
6HR MIN TEMP:  53; 6HR MAX TEMP:  63;

TAOS           FAIR      45  27  49 N6        30.32S
ANGEL FIRE     FAIR      38  35  90 CALM      30.42R

$$
NMZ402-403-502-505>509-300700-
WESTCENTRAL MOUNTAINS/SOUTHWEST MOUNTAINS

CITY           SKY/WX    TMP DP  RH WIND       PRES   REMARKS
GALLUP         FAIR      61  31  32 VRB3      30.20S
6HR MIN TEMP:  58; 6HR MAX TEMP:  79;

GRANTS         FAIR      54  33  44 S8        30.24S
SILVER CITY    FAIR      68  33  27 E15       30.17R

$$
NMZ407-409-411-412-300700-
SOUTHERN DESERTS

CITY           SKY/WX    TMP DP  RH WIND       PRES   REMARKS
DEMING         FAIR      71  42  35 E7        30.11R
6HR MIN TEMP:  71; 6HR MAX TEMP:  87;

LAS CRUCES     FAIR      70  49  47 SE15G23   30.15F
ALAMOGORDO     MOCLDY    68  37  32 W5        30.14S
T OR C         FAIR      68  38  33 VRB3      30.17R
6HR MIN TEMP:  67; 6HR MAX TEMP:  80;


$$
NMZ519>523-300700-
CENTRAL VALLEYS/CENTRAL HIGHLANDS

CITY           SKY/WX    TMP DP  RH WIND       PRES   REMARKS
ALBUQUERQUE    FAIR      61  43  51 N6        30.21R
6HR MIN TEMP:  61; 6HR MAX TEMP:  73;

DOUBLE EAGLE   FAIR      48  36  62 NW6       30.24S
MORIARTY ARPT  FAIR      49  45  86 SE8       30.30R
6HR MIN TEMP:  47; 6HR MAX TEMP:  60;

CLINES CORNERS FAIR      45  42  89 SE6       30.32S
6HR MIN TEMP:  45; 6HR MAX TEMP:  51; 6HR PCP:  0.12;

BELEN          FAIR      59  40  50 S6        30.19S
6HR MIN TEMP:  59; 6HR MAX TEMP:  72;

SOCORRO        FAIR      64  37  38 CALM      30.17F
6HR MIN TEMP:  63; 6HR MAX TEMP:  75;


$$
NMZ524>526-539-540-300700-
SOUTHCENTRAL MOUNTAINS

CITY           SKY/WX    TMP DP  RH WIND       PRES   REMARKS
RUIDOSO        FAIR      52  37  58 CALM      30.34S

$$
NMZ527>531-300700-
NORTHEAST HIGHLANDS/NORTHEAST PLAINS

CITY           SKY/WX    TMP DP  RH WIND       PRES   REMARKS
LAS VEGAS      FAIR      44  40  85 SE3       30.32S
6HR MIN TEMP:  42; 6HR MAX TEMP:  56;

RATON          CLOUDY    51  45  79 N7        30.34R
6HR MIN TEMP:  50; 6HR MAX TEMP:  64; 6HR PCP:  0.03;

CLAYTON        FAIR      53  47  79 W9        30.26R
6HR MIN TEMP:  51; 6HR MAX TEMP:  57; 6HR PCP:  0.09;


$$
NMZ532>537-300700-
EASTCENTRAL PLAINS

CITY           SKY/WX    TMP DP  RH WIND       PRES   REMARKS
SANTA ROSA     FAIR      51  49  91 N6        30.25R
TUCUMCARI      FAIR      58  54  86 NW8       30.20R
6HR MIN TEMP:  56; 6HR MAX TEMP:  59; 6HR PCP:  0.19;

CANNON AFB     DRIZZLE   64  46  53 E12       30.21F
6HR MIN TEMP:  60; 6HR MAX TEMP:  77; 6HR PCP:  0.02;

CLOVIS AIRPORT CLOUDY    66  43  42 W13       30.24R

$$
NMZ028-029-538-300700-
SOUTHEAST PLAINS

CITY           SKY/WX    TMP DP  RH WIND       PRES   REMARKS
ROSWELL        FAIR      68  44  42 S5        30.16F
6HR MIN TEMP:  67; 6HR MAX TEMP:  87; 6HR PCP: TRACE;

ARTESIA        FAIR      68  46  45 N7        30.19R
CARLSBAD       FAIR      70  45  40 NW10      30.13R
6HR MIN TEMP:  70; 6HR MAX TEMP:  87;

HOBBS          FAIR      68  39  34 E10       30.18S


$$




USA.gov is the U.S. government's official web portal to all federal, state and local government web resources and services.